Content
SEND FEEDBACK

Daily
Averages
Monthly
Summary
United States of America

PALMETTO, TENNESSEE


Home > North America > United States > Tennessee
Elevation: 77 feet     Latitude: 35 29N     Longitude: 086 35W

WEATHER
 
SELECT A DAY
Number of Records: 63,384;   Date Range: 9/2/10 - 11/24/14
 
SHARE

PRINT THIS DATA

[ ← Previous Day ]
WEATHER ALMANAC - AUGUST 8, 2014
[ Next Day → ]
[ °C ]   °F
Weather ElementAverageHighLow
Temperature74.7 °F87.8 °F (11:55 am)69.8 °F (7:35 am)
Dewpoint69.3 °F73.4 °F (1:55 pm)66.2 °F (8:35 am)
Humidity84.2 %100 % (9:55 pm)55 % (10:15 am)
Barometer30.02 in30.07 in (12:15 am)29.98 in (2:55 pm)
Wind Speed3.9 mph11.5 mph (11:55 am)
Weather ElementAverage
Visibility9.7 mi
Wind DirectionESE (114.1 °)

Weather ElementTotal
Precipitation---
Cooling Degree Days13.8 (Base 65)
Growing Degree Days28.8 (Base 50)
Averaged from 70 records on August 8, 2014
WEATHER CONDITIONS BREAKOUT
WIND DIRECTION BREAKOUT
WEATHER BY HOUR - AUGUST 8, 2014
[ °C ]   °F
Local TimeTemperatureDewpointHumidityBarometerVisibilityWind DirectionWind SpeedGust SpeedPrecipitationEventsConditions
12:15 AM71.6 °F66.2 °F83 %30.01 in10.0 miSSE (160°)3.5 mphClear
12:35 AM71.6 °F66.2 °F83 %30.01 in10.0 miSSE (150°)4.6 mphClear
12:55 AM71.6 °F66.2 °F83 %30.00 in10.0 miSE (130°)4.6 mphClear
1:15 AM71.6 °F66.2 °F83 %30.00 in10.0 miSE (130°)4.6 mphClear
1:35 AM71.6 °F66.2 °F83 %30.00 in10.0 miSE (130°)3.5 mphClear
1:55 AM71.6 °F66.2 °F83 %30.00 in10.0 miSE (140°)4.6 mphClear
2:15 AM71.6 °F66.2 °F83 %29.99 in10.0 miSE (140°)4.6 mphClear
2:35 AM71.6 °F66.2 °F83 %30.00 in10.0 miSSE (150°)4.6 mphClear
2:55 AM71.6 °F66.2 °F83 %30.00 in10.0 miSSE (160°)3.5 mphClear
3:15 AM69.8 °F66.2 °F88 %29.99 in10.0 miCalmClear
3:35 AM71.6 °F66.2 °F83 %30.00 in10.0 miCalmClear
3:55 AM71.6 °F66.2 °F83 %30.00 in10.0 miSSE (150°)3.5 mphPartly Cloudy
4:15 AM71.6 °F66.2 °F83 %30.01 in10.0 miSE (130°)3.5 mphPartly Cloudy
4:35 AM71.6 °F66.2 °F83 %30.01 in10.0 miCalmScattered Clouds
4:55 AM71.6 °F68.0 °F88 %30.01 in10.0 miCalmMostly Cloudy
5:15 AM71.6 °F66.2 °F83 %30.01 in10.0 miCalmMostly Cloudy
5:35 AM71.6 °F68.0 °F88 %30.02 in4.0 miNW (320°)3.5 mphMostly Cloudy
5:55 AM69.8 °F68.0 °F94 %30.02 in10.0 miCalmPartly Cloudy
6:15 AM71.6 °F68.0 °F88 %30.03 in10.0 miCalmMostly Cloudy
6:35 AM71.6 °F68.0 °F88 %30.03 in10.0 miCalmMostly Cloudy
6:55 AM71.6 °F69.8 °F94 %30.03 in10.0 miEast (100°)4.6 mphMostly Cloudy
7:15 AM71.6 °F68.0 °F88 %30.03 in10.0 miCalmPartly Cloudy
7:35 AM71.6 °F69.8 °F94 %30.04 in10.0 miCalmPartly Cloudy
7:55 AM71.6 °F69.8 °F94 %30.05 in10.0 miSE (140°)3.5 mphClear
8:15 AM71.6 °F69.8 °F94 %30.06 in10.0 miSSE (160°)4.6 mphClear
8:35 AM73.4 °F69.8 °F88 %30.06 in10.0 miCalmMostly Cloudy
8:55 AM73.4 °F69.8 °F88 %30.05 in10.0 miSouth (170°)4.6 mphPartly Cloudy
9:15 AM75.2 °F69.8 °F83 %30.06 in10.0 miCalmClear
9:35 AM75.2 °F69.8 °F83 %30.05 in10.0 miSSE (160°)3.5 mphClear
9:55 AM78.8 °F69.8 °F74 %30.06 in10.0 miWSW (240°)4.6 mphClear
10:15 AM78.8 °F69.8 °F74 %30.07 in10.0 miWNW (290°)6.9 mphMostly Cloudy
10:35 AM80.6 °F69.8 °F70 %30.06 in10.0 miWest (270°)4.6 mphScattered Clouds
10:55 AM82.4 °F69.8 °F66 %30.05 in10.0 miWest (260°)3.5 mphClear
11:15 AM82.4 °F69.8 °F66 %30.05 in10.0 miSSW (210°)3.5 mphClear
11:35 AM84.2 °F69.8 °F62 %30.05 in10.0 miSW (230°)8.1 mphClear
11:55 AM84.2 °F69.8 °F62 %30.04 in10.0 miSSW (200°)5.8 mphScattered Clouds
12:15 PM84.2 °F69.8 °F62 %30.03 in10.0 miSSE (160°)4.6 mphMostly Cloudy
12:35 PM86.0 °F69.8 °F58 %30.02 in10.0 miSSW (200°)9.2 mphScattered Clouds
12:55 PM86.0 °F71.6 °F62 %30.02 in10.0 miSSW (200°)10.4 mphPartly Cloudy
1:15 PM84.2 °F71.6 °F66 %30.00 in10.0 miSouth (190°)5.8 mphScattered Clouds
1:35 PM87.8 °F69.8 °F55 %30.00 in10.0 miSW (230°)5.8 mphMostly Cloudy
1:55 PM86.0 °F73.4 °F66 %30.00 in10.0 miENE (60°)5.8 mphScattered Clouds
2:15 PM84.2 °F71.6 °F66 %29.99 in10.0 miNE (50°)11.5 mphScattered Clouds
2:35 PM82.4 °F71.6 °F70 %29.99 in10.0 miNorth (10°)10.4 mphMostly Cloudy
2:55 PM80.6 °F71.6 °F74 %29.98 in10.0 miNorth (10°)10.4 mphMostly Cloudy
3:35 PM78.8 °F71.6 °F78 %29.99 in10.0 miNE (40°)5.8 mphMostly Cloudy
3:55 PM77.0 °F73.4 °F89 %29.99 in0.5 miNW (310°)5.8 mphOvercast
4:15 PM75.2 °F73.4 °F94 %30.00 in10.0 miCalmMostly Cloudy
4:35 PM75.2 °F71.6 °F89 %29.99 in10.0 miESE (110°)4.6 mphScattered Clouds
4:55 PM75.2 °F71.6 °F89 %29.99 in10.0 miEast (100°)4.6 mphScattered Clouds
5:15 PM75.2 °F71.6 °F89 %29.99 in10.0 miEast (100°)5.8 mphScattered Clouds
5:35 PM73.4 °F71.6 °F94 %30.01 in1.2 miSE (140°)6.9 mphMostly Cloudy
5:55 PM73.4 °F71.6 °F94 %30.01 in10.0 miCalmMostly Cloudy
6:15 PM73.4 °F71.6 °F94 %29.99 in10.0 miSE (140°)5.8 mphMostly Cloudy
6:35 PM73.4 °F71.6 °F94 %29.99 in10.0 miCalmClear
6:55 PM73.4 °F71.6 °F94 %29.99 in10.0 miESE (120°)4.6 mphClear
7:15 PM73.4 °F71.6 °F94 %29.99 in10.0 miSE (140°)4.6 mphClear
7:35 PM71.6 °F69.8 °F94 %30.00 in10.0 miSE (130°)4.6 mphClear
7:55 PM71.6 °F69.8 °F94 %29.99 in10.0 miSE (140°)4.6 mphClear
8:15 PM71.6 °F69.8 °F94 %30.00 in10.0 miSE (140°)5.8 mphClear
8:35 PM71.6 °F69.8 °F94 %30.00 in10.0 miESE (120°)3.5 mphClear
8:55 PM69.8 °F68.0 °F94 %30.02 in10.0 miCalmClear
9:15 PM69.8 °F68.0 °F94 %30.04 in10.0 miCalmPartly Cloudy
9:35 PM69.8 °F68.0 °F94 %30.05 in10.0 miCalmScattered Clouds
9:55 PM69.8 °F69.8 °F100 %30.05 in10.0 miSouth (170°)4.6 mphClear
10:15 PM69.8 °F69.8 °F100 %30.04 in10.0 miSE (140°)4.6 mphClear
10:35 PM69.8 °F69.8 °F100 %30.04 in10.0 miSSE (150°)5.8 mphClear
10:55 PM69.8 °F69.8 °F100 %30.03 in10.0 miSSE (150°)5.8 mphClear
11:15 PM69.8 °F68.0 °F94 %30.03 in10.0 miSW (220°)3.5 mphClear
11:35 PM69.8 °F68.0 °F94 %30.02 in10.0 miCalmClear
Hourly data recorded from KTHA, located miles away from Palmetto, Tennessee







STORIES FROM OUR PARTNERS